Regional Weather Roundup
Issued by NWS

Home | Current Version | Previous Version | Graphics & Text | Print | Product List | Glossary On
Versions: 1 2 3 4 5 6 7 8 9 10 11 12 13 14 15 16 17 18 19 20 21 22 23 24 25 26 27 28 29 30 31 32 33 34 35 36 37 38 39 40 41 42 43 44 45 46 47 48 49 50
000
ASUS45 KCYS 241710
RWRWY

WYOMING REGIONAL WEATHER ROUNDUP
NATIONAL WEATHER SERVICE CHEYENNE WY
1100 AM MDT THU JUL 24 2014

NOTE:  "FAIR" INDICATES FEW OR NO CLOUDS BELOW 12,000 FEET
WITH NO SIGNIFICANT WEATHER AND/OR OBSTRUCTIONS TO VISIBILITY.

WYZ001-241800-
YELLOWSTONE NATIONAL PARK

CITY           SKY/WX    TMP DP  RH WIND       PRES   REMARKS
LK YELLOWSTONE   N/A     69  32  25 W8G20     30.26R
W YELLOWSTONE  NOT AVBL

$$
WYZ002>013-054>058-071-098>099-241800-
NORTHERN WYOMING

CITY           SKY/WX    TMP DP  RH WIND       PRES   REMARKS
JACKSON        NOT AVBL
CODY           NOT AVBL
GREYBULL       SUNNY     92  40  16 SW3       29.87S
WORLAND        SUNNY     96  41  15 SW18      29.88F HX  92
SHERIDAN       SUNNY     89  60  37 NW10      29.85S
BUFFALO        SUNNY     95  40  14 W14       29.94S HX  91
GILLETTE       SUNNY     95  45  17 SW17G25   29.88S HX  91
HULETT         FAIR      90  54  29 MISG      29.89
NEWCASTLE      FAIR      90  45  20 S3        29.92

$$
WYZ014>020-022>026-101>103-241800-
CENTRAL WYOMING

CITY           SKY/WX    TMP DP  RH WIND       PRES   REMARKS
BIG PINEY      MOSUNNY   76  47  35 W6        30.22F
PINEDALE       MOSUNNY   77  41  27 S5        30.24F
DUBOIS         FAIR      77  36  22 W20G33    30.18S
LANDER         MOSUNNY   84  37  18 SW24G35   30.07S
RIVERTON       MOSUNNY   89  34  14 SW28G36   30.03F
CASPER         PTSUNNY   91  40  16 SW32G39   30.04F
DOUGLAS        PTSUNNY   95  42  16 W23G31    30.01S HX  91

$$
WYZ021-027>030-104>119-241800-
SOUTHERN WYOMING

CITY           SKY/WX    TMP DP  RH WIND       PRES   REMARKS
EVANSTON       MOSUNNY   80  40  23 SW26G38   30.25R
KEMMERER       MOSUNNY   81  34  18 SW16G26   30.25F
FORT BRIDGER   FAIR      82  35  18 SW20G28   30.27R
ROCK SPRINGS   PTSUNNY   82  43  25 SW22G30   30.23F
DIXON          PTSUNNY   81  42  25 SW24G33   30.31S
RAWLINS        MOSUNNY   85  38  18 SW30G44   30.24S
SARATOGA       FAIR      79  41  25 SW26G37   30.29S
LARAMIE        MOSUNNY   81  44  27 SW24G35   30.27F
CHEYENNE       MOSUNNY   88  44  21 W29G39    30.16S
TORRINGTON     MOSUNNY   88  58  36 VRB5      29.97F
PINE BLUFFS    FAIR      91  45  19 SW10      30.08F

$$


USA.gov is the U.S. government's official web portal to all federal, state and local government web resources and services.